TimeCDT,TemperatureF,Dew PointF,Humidity,Sea Level PressureIn,VisibilityMPH,Wind Direction,Wind SpeedMPH,Gust SpeedMPH,PrecipitationIn,Events,Conditions,WindDirDegrees,DateUTC
12:55 AM,35.1,34.7,99,30.30,10.0,WNW,4.6,-,N/A,,Clear,290,2012-10-06 05:55:00
1:55 AM,36.1,36.0,99,30.28,10.0,WSW,3.5,-,N/A,,Clear,250,2012-10-06 06:55:00
2:55 AM,36.1,35.8,99,30.30,10.0,WSW,3.5,-,N/A,,Scattered Clouds,240,2012-10-06 07:55:00
3:55 AM,38.8,37.2,94,30.30,10.0,West,5.8,-,N/A,,Partly Cloudy,260,2012-10-06 08:55:00
4:55 AM,40.3,36.5,86,30.28,10.0,Calm,Calm,-,N/A,,Partly Cloudy,0,2012-10-06 09:55:00
5:55 AM,40.5,36.7,86,30.29,10.0,WNW,3.5,-,N/A,,Scattered Clouds,300,2012-10-06 10:55:00
6:55 AM,40.1,36.3,86,30.28,10.0,North,9.2,-,N/A,,Overcast,350,2012-10-06 11:55:00
7:55 AM,39.7,34.9,83,30.30,10.0,North,6.9,-,N/A,,Overcast,360,2012-10-06 12:55:00
8:55 AM,41.0,34.0,76,30.30,10.0,North,6.9,-,N/A,,Overcast,10,2012-10-06 13:55:00
9:55 AM,42.6,32.7,68,30.32,10.0,North,10.4,-,N/A,,Scattered Clouds,360,2012-10-06 14:55:00
10:55 AM,44.1,30.2,58,30.34,10.0,North,9.2,-,N/A,,Clear,350,2012-10-06 15:55:00
11:55 AM,43.9,29.5,57,30.35,10.0,NNW,10.4,-,N/A,,Clear,330,2012-10-06 16:55:00
12:55 PM,45.5,28.4,51,30.34,10.0,NNW,8.1,-,N/A,,Clear,330,2012-10-06 17:55:00
1:55 PM,44.8,27.5,51,30.32,10.0,NNW,9.2,-,N/A,,Clear,340,2012-10-06 18:55:00
2:55 PM,45.7,27.9,50,30.31,10.0,WNW,6.9,-,N/A,,Clear,300,2012-10-06 19:55:00
3:55 PM,46.0,28.4,50,30.29,10.0,North,4.6,-,N/A,,Mostly Cloudy,350,2012-10-06 20:55:00
4:55 PM,45.3,28.4,52,30.28,10.0,NNW,8.1,-,N/A,,Mostly Cloudy,340,2012-10-06 21:55:00
5:55 PM,44.4,28.4,53,30.28,10.0,North,9.2,-,N/A,,Scattered Clouds,350,2012-10-06 22:55:00
6:55 PM,43.2,29.3,58,30.29,10.0,NNW,5.8,-,N/A,,Overcast,340,2012-10-06 23:55:00
7:55 PM,42.4,30.9,64,30.31,10.0,NW,5.8,-,N/A,,Mostly Cloudy,320,2012-10-07 00:55:00
8:55 PM,41.5,32.7,71,30.32,10.0,West,3.5,-,N/A,,Overcast,270,2012-10-07 01:55:00
9:55 PM,41.2,33.3,73,30.32,10.0,WSW,4.6,-,N/A,,Overcast,250,2012-10-07 02:55:00
10:55 PM,40.8,34.0,77,30.31,10.0,West,5.8,-,N/A,,Overcast,260,2012-10-07 03:55:00
11:55 PM,41.2,31.6,69,30.30,10.0,WNW,4.6,-,N/A,,Overcast,300,2012-10-07 04:55:00